Estación de Las Viñas
Ultimos registro cada 15 minutos 59
| N° | Estación | Fecha / Hora | Temperatura | Humedad | Lluvia | Velocidad | Dirección | Radiación | Presion |
| 59 | Las Viñas | 02-05-2026 14:30 | 17,8 | 56 | 0 | 0 | 257 | 531 | 1017,8 |
| 58 | Las Viñas | 02-05-2026 14:15 | 17,3 | 55 | 0 | 0 | 204 | 534 | 1017,8 |
| 57 | Las Viñas | 02-05-2026 14:00 | 17,1 | 55 | 0 | 0 | 166 | 585 | 1018,2 |
| 56 | Las Viñas | 02-05-2026 13:45 | 16,2 | 56 | 0 | 0 | 158 | 606 | 1018,4 |
| 55 | Las Viñas | 02-05-2026 13:30 | 16 | 56 | 0 | 0 | 114 | 612 | 1018,6 |
| 54 | Las Viñas | 02-05-2026 13:15 | 15,7 | 57 | 0 | 0 | 168 | 455 | 1018,7 |
| 53 | Las Viñas | 02-05-2026 13:00 | 15,3 | 58 | 0 | 0 | 168 | 629 | 1019 |
| 52 | Las Viñas | 02-05-2026 12:45 | 14,9 | 59 | 0 | 0 | 130 | 631 | 1019,4 |
| 51 | Las Viñas | 02-05-2026 12:30 | 13,9 | 60 | 0 | 0 | 8 | 631 | 1019,5 |
| 50 | Las Viñas | 02-05-2026 12:15 | 13,2 | 58 | 0 | 0 | 169 | 626 | 1019,9 |
| 49 | Las Viñas | 02-05-2026 12:00 | 12,9 | 59 | 0 | 0 | 139 | 617 | 1019,9 |
| 48 | Las Viñas | 02-05-2026 11:45 | 12,3 | 64 | 0 | 0 | 194 | 376 | 1020,4 |
| 47 | Las Viñas | 02-05-2026 11:30 | 11,3 | 67 | 0 | 0 | 143 | 591 | 1020,6 |
| 46 | Las Viñas | 02-05-2026 11:15 | 10,6 | 65 | 0 | 0 | 153 | 570 | 1020,8 |
| 45 | Las Viñas | 02-05-2026 11:00 | 10 | 73 | 0 | 0 | 149 | 543 | 1021,1 |
| 44 | Las Viñas | 02-05-2026 10:45 | 9,3 | 77 | 0 | 0 | 189 | 506 | 1021,3 |
| 43 | Las Viñas | 02-05-2026 10:30 | 8,5 | 74 | 0 | 0 | 113 | 483 | 1021,4 |
| 42 | Las Viñas | 02-05-2026 10:15 | 8,1 | 78 | 0 | 0 | 162 | 216 | 1021,3 |
| 41 | Las Viñas | 02-05-2026 10:00 | 7,4 | 80 | 0 | 0 | 149 | 406 | 1021,8 |
| 40 | Las Viñas | 02-05-2026 09:45 | 6,7 | 82 | 0 | 0 | 152 | 373 | 1021,9 |
| 39 | Las Viñas | 02-05-2026 09:30 | 5,9 | 83 | 0 | 0,9 | 141 | 181 | 1022 |
| 38 | Las Viñas | 02-05-2026 09:15 | 5,1 | 85 | 0 | 0 | 159 | 83 | 1022,5 |
| 37 | Las Viñas | 02-05-2026 09:00 | 4,3 | 87 | 0 | 0 | 175 | 155 | 1022,4 |
| 36 | Las Viñas | 02-05-2026 08:45 | 3,5 | 89 | 0 | 0 | 166 | 149 | 1022,4 |
| 35 | Las Viñas | 02-05-2026 08:30 | 2,8 | 88 | 0 | 0 | 185 | 56 | 1022,1 |
| 34 | Las Viñas | 02-05-2026 08:15 | 2,4 | 88 | 0 | 0 | 163 | 32 | 1021,9 |
| 33 | Las Viñas | 02-05-2026 08:00 | 2,3 | 88 | 0 | 0 | 160 | 16 | 1021,9 |
| 32 | Las Viñas | 02-05-2026 07:45 | 2,3 | 88 | 0 | 0 | 143 | 11 | 1022 |
| 31 | Las Viñas | 02-05-2026 07:30 | 2,4 | 88 | 0 | 0 | 156 | 0 | 1021,9 |
| 30 | Las Viñas | 02-05-2026 07:15 | 2,4 | 88 | 0 | 0 | 175 | 0 | 1022 |
| 29 | Las Viñas | 02-05-2026 07:00 | 2,7 | 88 | 0 | 0 | 175 | 0 | 1022,1 |
| 28 | Las Viñas | 02-05-2026 06:45 | 2,9 | 88 | 0 | 0 | 175 | 0 | 1022 |
| 27 | Las Viñas | 02-05-2026 06:30 | 2,8 | 88 | 0 | 0 | 170 | 0 | 1022 |
| 26 | Las Viñas | 02-05-2026 06:15 | 2,9 | 88 | 0 | 0 | 160 | 0 | 1022,2 |
| 25 | Las Viñas | 02-05-2026 06:00 | 3 | 88 | 0 | 0 | 162 | 0 | 1022,3 |
| 24 | Las Viñas | 02-05-2026 05:45 | 3,3 | 88 | 0 | 0 | 162 | 0 | 1022,5 |
| 23 | Las Viñas | 02-05-2026 05:30 | 3,3 | 88 | 0 | 0 | 162 | 0 | 1022,5 |
| 22 | Las Viñas | 02-05-2026 05:15 | 3,3 | 89 | 0 | 0 | 162 | 0 | 1022,7 |
| 21 | Las Viñas | 02-05-2026 05:00 | 3,6 | 89 | 0 | 0 | 162 | 0 | 1023 |
| 20 | Las Viñas | 02-05-2026 04:45 | 3,9 | 89 | 0 | 0 | 153 | 0 | 1023,1 |
| 19 | Las Viñas | 02-05-2026 04:30 | 3,9 | 89 | 0 | 0 | 158 | 0 | 1023 |
| 18 | Las Viñas | 02-05-2026 04:15 | 3,7 | 89 | 0 | 0 | 167 | 0 | 1023,1 |
| 17 | Las Viñas | 02-05-2026 04:00 | 3,7 | 89 | 0 | 0 | 145 | 0 | 1023,3 |
| 16 | Las Viñas | 02-05-2026 03:45 | 3,6 | 89 | 0 | 0 | 137 | 0 | 1023,5 |
| 15 | Las Viñas | 02-05-2026 03:30 | 3,7 | 89 | 0 | 0 | 165 | 0 | 1023,7 |
| 14 | Las Viñas | 02-05-2026 03:15 | 3,9 | 89 | 0 | 0 | 175 | 0 | 1023,9 |
| 13 | Las Viñas | 02-05-2026 03:00 | 3,9 | 89 | 0 | 0 | 185 | 0 | 1024,1 |
| 12 | Las Viñas | 02-05-2026 02:45 | 4 | 89 | 0 | 0 | 175 | 0 | 1024,5 |
| 11 | Las Viñas | 02-05-2026 02:30 | 4,2 | 89 | 0 | 0 | 161 | 0 | 1024,7 |
| 10 | Las Viñas | 02-05-2026 02:15 | 4,4 | 89 | 0 | 0 | 157 | 0 | 1024,9 |
| 9 | Las Viñas | 02-05-2026 02:00 | 4,8 | 89 | 0 | 0 | 149 | 0 | 1024,8 |
| 8 | Las Viñas | 02-05-2026 01:45 | 5,2 | 88 | 0 | 0 | 149 | 0 | 1025 |
| 7 | Las Viñas | 02-05-2026 01:30 | 5,4 | 89 | 0 | 0 | 167 | 0 | 1025,2 |
| 6 | Las Viñas | 02-05-2026 01:15 | 5,6 | 88 | 0 | 0 | 168 | 0 | 1025,4 |
| 5 | Las Viñas | 02-05-2026 01:00 | 5,8 | 88 | 0 | 0 | 158 | 0 | 1025,7 |
| 4 | Las Viñas | 02-05-2026 00:45 | 5,5 | 89 | 0 | 0 | 152 | 0 | 1025,9 |
| 3 | Las Viñas | 02-05-2026 00:30 | 5,5 | 89 | 0 | 0 | 152 | 0 | 1025,9 |
| 2 | Las Viñas | 02-05-2026 00:15 | 5,4 | 89 | 0 | 0 | 153 | 0 | 1026,1 |
| 1 | Las Viñas | 02-05-2026 00:00 | 5,4 | 89 | 0 | 0 | 162 | 0 | 1026,1 |